Weather History for Wenatchee, WA

Change the Weather History Date:

Monday, November 10, 2014

  Actual Average Record
Temperature  
Mean Temperature 34 °F 36 °F  
Max Temperature 41 °F 44 °F 67 °F (1989)
Min Temperature 27 °F 29 °F 15 °F (1986)
Degree Days  
Heating Degree Days 31 29  
Month to date heating degree days 225 271  
Since 1 July heating degree days 838 1227  
Cooling Degree Days 0 0  
Month to date cooling degree days 0 0  
Year to date cooling degree days 408 249  
Moisture  
Dew Point 24 °F    
Average Humidity 47    
Maximum Humidity 73    
Minimum Humidity 28    
Precipitation  
Precipitation T in 0.07 in 1.27 in (1983)
Month to date precipitation 0.82 0.63  
Year to date precipitation 14.07 12.97  
Snow  
Snow T in 0.10 in - ()
Month to date snowfall T 0.8  
Since 1 July snowfall T 0.9  
Since 1 September snowfall T 0.9  
Snow Depth 0.00 in    
Sea Level Pressure  
Sea Level Pressure 30.16 in    
Wind  
Wind Speed 7 mph (SE)    
Max Wind Speed 18 mph    
Max Gust Speed 28 mph    
Visibility 10 miles    
Events      
T = Trace of Precipitation, MM = Missing Value Source: NWS Daily Summary

Daily Weather History Graph

Daily Weather History Graph

Search for Another Location

Airport:

Trip Planner

Search our weather history database for the weather conditions in past years. The results will help you decide how hot, cold, wet, or windy it might be!

Date:

Astronomy

Nov. 10, 2014 Rise Set
Actual Time 6:58 AM PST 4:30 PM PST
Civil Twilight 6:25 AM PST 5:03 PM PST
Nautical Twilight 5:48 AM PST 5:40 PM PST
Astronomical Twilight 5:12 AM PST 6:16 PM PST
Moon 8:00 PM PST (11/10) 10:27 AM PST (11/10)
Length of Visible Light 10h 38m
Length of Day
9h 32m
Waning Gibbous, 84% of the Moon is Illuminated
Nov 10
Waning Gibbous
Nov 14
Last Quarter
Nov 22
New
Nov 29
First Quarter
Dec 6
Full

Hourly Weather History & Observations

Time (PST) Temp. Windchill Dew Point Humidity Pressure Visibility Wind Dir Wind Speed Gust Speed Precip Events Conditions
12:55 AM 43.0 °F 37.7 °F 30.9 °F 62% 29.96 in 10.0 mi NW 9.2 mph - N/A   Clear
1:55 AM 44.1 °F 38.1 °F 30.9 °F 60% 29.99 in 10.0 mi NNW 11.5 mph - N/A   Clear
2:55 AM 45.0 °F 41.2 °F 30.0 °F 56% 30.03 in 10.0 mi WNW 6.9 mph - N/A   Clear
3:55 AM 41.0 °F - 30.9 °F 67% 30.08 in 10.0 mi Calm Calm - N/A   Clear
4:55 AM 37.9 °F 32.7 °F 30.0 °F 73% 30.12 in 10.0 mi East 6.9 mph - N/A   Clear
5:55 AM 37.9 °F 35.5 °F 30.0 °F 73% 30.14 in 10.0 mi West 3.5 mph - N/A   Clear
6:55 AM 37.0 °F 32.4 °F 28.0 °F 70% 30.17 in 10.0 mi NW 5.8 mph - N/A   Clear
7:55 AM 39.9 °F 36.7 °F 28.9 °F 65% 30.20 in 10.0 mi NW 4.6 mph - N/A   Clear
8:55 AM 42.1 °F 40.2 °F 32.0 °F 67% 30.21 in 10.0 mi SSE 3.5 mph - N/A   Clear
9:55 AM 44.1 °F 41.5 °F 30.9 °F 60% 30.20 in 10.0 mi WSW 4.6 mph - N/A   Clear
10:55 AM 48.0 °F - 30.0 °F 50% 30.20 in 10.0 mi SW 5.8 mph - N/A   Clear
11:55 AM 50.0 °F - 21.0 °F 32% 30.17 in 10.0 mi South 5.8 mph - N/A   Clear
12:55 PM 51.1 °F - 19.9 °F 29% 30.17 in 10.0 mi SE 3.5 mph - N/A   Clear
1:55 PM 51.1 °F - 19.9 °F 29% 30.15 in 10.0 mi South 4.6 mph - N/A   Clear
2:55 PM 51.1 °F - 19.0 °F 28% 30.15 in 10.0 mi SSE 5.8 mph - N/A   Mostly Cloudy
3:55 PM 48.9 °F - 23.0 °F 36% 30.16 in 10.0 mi SE 3.5 mph - N/A   Overcast
4:55 PM 46.9 °F - 23.0 °F 39% 30.17 in 10.0 mi ESE 5.8 mph - N/A   Overcast
5:55 PM 46.9 °F - 19.9 °F 34% 30.19 in 10.0 mi ENE 6.9 mph - N/A   Overcast
6:55 PM 46.9 °F - 17.1 °F 30% 30.19 in 10.0 mi NE 17.3 mph - N/A   Overcast
7:55 PM 46.0 °F 38.8 °F 17.1 °F 31% 30.19 in 10.0 mi NE 18.4 mph 27.6 mph N/A   Overcast
8:55 PM 45.0 °F 42.6 °F 19.0 °F 36% 30.21 in 10.0 mi SE 4.6 mph - N/A   Overcast
9:55 PM 45.0 °F - 18.0 °F 34% 30.23 in 10.0 mi Calm Calm - N/A   Overcast
10:55 PM 44.1 °F - 17.1 °F 34% 30.23 in 10.0 mi North - - N/A   Overcast
11:55 PM 43.0 °F 38.2 °F 16.0 °F 34% 30.25 in 10.0 mi NNE 8.1 mph - N/A   Overcast